Regional Weather Roundup
Issued by NWS

Home | Current Version | Previous Version | Graphics & Text | Print | Product List | Glossary On
Versions: 1 2 3 4 5 6 7 8 9 10 11 12 13 14 15 16 17 18 19 20 21 22 23 24 25 26 27 28 29 30 31 32 33 34 35 36 37 38 39 40 41 42 43 44 45 46 47 48 49 50
000
ASUS43 KLSX 282210
RWRMO

WEATHER SUMMARY FOR MISSOURI
NATIONAL WEATHER SERVICE SPRINGFIELD MO
500 PM CDT FRI AUG 28 2015

NOTE: "FAIR" INDICATES FEW OR NO CLOUDS BELOW 12,000 FEET WITH NO
       SIGNIFICANT WEATHER AND/OR OBSTRUCTIONS TO VISIBILITY.
       CURRENT SKY AND/OR WEATHER CONDITIONS ARE NOT AVAILABLE FOR
       CHILLICOTHE AND FARMINGTON.

MOZ001>031-035>038-043-044-053-054-282300-
...NORTHERN AND WESTERN MISSOURI...

CITY           SKY/WX    TMP DP  RH WIND       PRES   REMARKS
KANSAS CTY INT MOSUNNY   79  64  60 S17       29.90S
KANSAS C DTWN  MOSUNNY   81  65  58 SW17G26   29.89S
LEE`S SUMMIT   PTSUNNY   78  65  63 S16G24    29.92F
ST JOSEPH      CLOUDY    79  69  71 S13       29.86F
CHILLICOTHE      N/A     77  67  71 SE9       29.91F
KIRKSVILLE     CLOUDY    73  63  70 SE17G23   29.95F

$$
MOZ066>068-077>081-088>096-101>105-282300-
...SOUTHWEST MISSOURI...

CITY           SKY/WX    TMP DP  RH WIND       PRES   REMARKS
SPRINGFIELD    CLOUDY    78  63  59 S13       29.99F
JOPLIN         CLOUDY    78  67  68 S13       29.95F

$$
MOZ032>034-039>042-045>050-055>058-069>072-282300-
...CENTRAL MISSOURI...

CITY           SKY/WX    TMP DP  RH WIND       PRES   REMARKS
COLUMBIA       CLOUDY    76  64  66 SE10      29.98F
JEFFERSON CITY CLOUDY    80  63  55 SE7       29.97F
ROLLA          PTSUNNY   77  61  57 SE8       30.01F
SEDALIA        CLOUDY    74  68  81 S9        29.97F
WHITEMAN AFB   CLOUDY    74  67  80 S14       29.93F
WARRENSBURG    PTSUNNY   73  64  73 SE10G16   29.92F
OSAGE BEACH    CLOUDY    75  63  64 SW8       29.98F

$$
MOZ051-052-059>065-282300-
...EAST CENTRAL MISSOURI...

CITY           SKY/WX    TMP DP  RH WIND       PRES   REMARKS
ST LOUIS INTL  PTSUNNY   82  59  45 SE15      30.03F
SPIRIT OF STL  PTSUNNY   79  63  57 SE8       30.01F
ST CHARLES     PTSUNNY   79  63  57 S8        30.01F

$$
MOZ072>076-082>087-097>100-106>115-282300-
...SOUTH CENTRAL AND SOUTHEAST MISSOURI...

CITY           SKY/WX    TMP DP  RH WIND       PRES   REMARKS
CAPE GIRARDEAU MOSUNNY   82  61  48 VRB3      30.03F
FARMINGTON     MOSUNNY   79  61  53 SE7       30.07F
POPLAR BLUFF   SUNNY     83  61  47 VRB5      30.02S
WEST PLAINS    PTSUNNY   78  59  51 SE5       30.05F

$$



USA.gov is the U.S. government's official web portal to all federal, state and local government web resources and services.